This is the latest recevied weather packets stored in our database for station/object W0SS-13. If no packets are shown the sender has not sent any weather packets the latest 10 day(s).
| Time | Temp. | Humidity | Pressure | Rain* | Wind** | Luminosity | Snow |
|---|---|---|---|---|---|---|---|
| 1778008178 | 8.89° C | 82% | 1013.2 hPa | 0 mm | - | 173 W/m² | - |
| 1778007874 | 8.89° C | 81% | 1013.1 hPa | 0 mm | - | 187 W/m² | - |
| 1778007569 | 8.89° C | 83% | 1013 hPa | 0 mm | - | 181 W/m² | - |
| 1778007267 | 8.89° C | 83% | 1013.2 hPa | 0 mm | - | 132 W/m² | - |
| 1778006963 | 8.89° C | 85% | 1013.3 hPa | 0 mm | - | 127 W/m² | - |
| 1778006660 | 8.89° C | 84% | 1013.3 hPa | 0 mm | - | 127 W/m² | - |
| 1778006357 | 8.89° C | 84% | 1013.4 hPa | 0 mm | - | 144 W/m² | - |
| 1778006054 | 8.89° C | 84% | 1013.5 hPa | 0 mm | - | 127 W/m² | - |
| 1778005750 | 8.89° C | 85% | 1013.7 hPa | 0 mm | - | 159 W/m² | - |
| 1778005447 | 8.89° C | 85% | 1013.7 hPa | 0 mm | - | 182 W/m² | - |
| 1778005143 | 8.89° C | 84% | 1013.9 hPa | 0 mm | - | 154 W/m² | - |
| 1778004841 | 8.89° C | 84% | 1013.9 hPa | 0 mm | - | 157 W/m² | - |
| 1778004538 | 8.33° C | 84% | 1013.9 hPa | 0 mm | - | 170 W/m² | - |
| 1778004234 | 8.33° C | 83% | 1014 hPa | 0 mm | - | 124 W/m² | - |
| 1778003931 | 8.33° C | 84% | 1014 hPa | 0 mm | - | 137 W/m² | - |
| 1778003627 | 8.89° C | 83% | 1014 hPa | 0 mm | - | 160 W/m² | - |
| 1778003323 | 8.33° C | 83% | 1014 hPa | 0 mm | - | 181 W/m² | - |
| 1778003022 | 8.33° C | 83% | 1014.1 hPa | 0 mm | - | 204 W/m² | - |
| 1778002717 | 8.33° C | 83% | 1013.9 hPa | 0 mm | - | 125 W/m² | - |
| 1778002414 | 8.33° C | 82% | 1014 hPa | 0 mm | - | 108 W/m² | - |
| 1778002111 | 8.33° C | 83% | 1014 hPa | 0 mm | - | 171 W/m² | - |
| 1778001809 | 8.33° C | 84% | 1013.9 hPa | 0 mm | - | 170 W/m² | - |
| 1778001508 | 8.33° C | 85% | 1013.9 hPa | 1.78 mm | - | 213 W/m² | - |
| 1778001205 | 8.33° C | 84% | 1013.8 hPa | 1.78 mm | - | 165 W/m² | - |
| 1778000902 | 8.33° C | 84% | 1013.9 hPa | 1.27 mm | - | 203 W/m² | - |
* Rain latest hour (hover to see other rain measurements)
** Current wind speed in m/s (hover to see current wind gust speed)